Regional Weather Roundup
Issued by NWS

Home | Current Version | Previous Version | Graphics & Text | Print | Product List | Glossary On
Versions: 1 2 3 4 5 6 7 8 9 10 11 12 13 14 15 16 17 18 19 20 21 22 23 24 25 26 27
000
ASUS45 KSLC 281010
RWRUT

UTAH REGIONAL WEATHER ROUNDUP
NATIONAL WEATHER SERVICE SALT LAKE CITY UT
400 AM MDT WED SEP 28 2016

UTZ001>011-023>025-281100-

NORTHERN UTAH

CITY           SKY/WX    TMP DP  RH WIND       PRES   REMARKS
BRIGHAM CITY     N/A     52  47  83 CALM      30.16S
HILL AFB       CLEAR     57  42  58 E21       30.16F
LOGAN          CLEAR     47  44  90 SW3       30.18R
OGDEN          CLEAR     57  43  59 S6        30.15S
PROVO AIRPORT  CLEAR     49  43  80 S6        30.18S
SALT LAKE CITY CLEAR     56  48  74 SE6       30.14S
VERNAL         CLEAR     46  42  86 W3        30.24S
WENDOVER       PTCLDY    52  43  71 CALM      30.15S
HEBER CITY     CLEAR     41  37  87 CALM      30.24F
WEST JORDAN    CLEAR     53  44  69 SW3       30.16F

$$

UTZ012>022-026-027-281100-

SOUTHERN/CENTRAL UTAH

CITY           SKY/WX    TMP DP  RH WIND       PRES   REMARKS
BLANDING       CLEAR     52  33  47 N7        30.32S
BRYCE CANYON   CLEAR     39  34  82 W7        30.35F WCI  34
CEDAR CITY     MOCLDY    50  34  54 CALM      30.21S
DELTA          CLEAR     54  43  66 S5        30.17R
MILFORD        CLEAR     49  34  56 SW7       30.19S
MOAB/CYNLANDS  CLEAR     53  38  56 CALM      30.15S
PRICE          CLEAR     49  37  63 NE5       30.23S
ST GEORGE      CLOUDY    66  41  39 SE7       30.08S

$$

REGIONAL REPORTS     COLORADO/ARIZONA

CITY           SKY/WX    TMP DP  RH WIND       PRES   REMARKS
CRAIG, CO      CLOUDY    37  32  82 CALM      30.31S
GRAND JUNCTION CLEAR     52  37  56 NE3       30.19S
RIFLE          CLOUDY    47  39  74 CALM      30.27S
MONTROSE       CLOUDY    50  36  58 SE9       30.28S
CORTEZ         CLEAR     42  36  79 NE8       30.28R
PAGE, AZ       MOCLDY    65  40  39 SW5       30.15S
GRAND CANYON   MOCLDY    56  41  57 CALM      30.26F
KINGMAN        PTCLDY    66  47  50 E7        30.07F
FLAGSTAFF      PTCLDY    42  41  96 CALM      30.28F

$$

REGIONAL REPORTS    NEVADA/IDAHO/WYOMING

CITY           SKY/WX    TMP DP  RH WIND       PRES   REMARKS
LAS VEGAS, NV  MOCLDY    73  45  36 NW6       29.98F
ELY            CLEAR     39  29  67 S9        30.25F WCI  33
ELKO           CLEAR     47  38  71 CALM      30.15S
POCATELLO, ID  CLEAR     44  42  93 NE5       30.17S
BURLEY         CLEAR     45  43  93 CALM      30.11S
EVANSTON, WY   CLOUDY    50  35  56 S5        30.32S
ROCK SPRINGS   CLOUDY    50  36  58 E3        30.33R

$$




USA.gov is the U.S. government's official web portal to all federal, state and local government web resources and services.